Lid_Strength_Index
14 13 12 13 13 13 14 13 16 14 14 12 10 9 8 9 9 9 7 7 8 7 8 8 7 6 6 6 6 6 7 7 6 5 5 4 4 2 2 1 2 1 1 1
16 13 13 14 13 12 12 12 12 12 13 9 8 10 10 9 9 8 7 7 7 7 7 7 6 6 5 6 6 6 7 7 6 6 5 5 4 3 3 2 1 1 1 2
18 14 14 17 13 12 12 13 12 16 14 12 11 9 9 8 7 7 7 7 7 6 7 7 6 5 6 6 6 7 7 7 7 6 6 6 5 4 3 2 2 2 2 2
16 16 21 14 11 11 12 11 12 12 11 10 9 8 7 7 7 8 7 7 6 6 6 6 5 6 5 6 6 7 7 7 7 6 7 7 6 5 2 2 2 2 3 3
19 18 15 12 11 13 14 13 10 10 9 9 9 9 10 7 7 7 7 6 6 5 5 6 5 5 6 6 7 7 7 7 7 6 7 7 7 6 3 2 3 3 4 4
15 18 19 14 10 8 10 16 9 8 9 9 10 13 11 8 7 6 6 5 5 4 4 5 4 5 6 6 7 8 6 6 6 6 8 8 7 6 3 3 4 4 5 5
15 16 14 9 8 8 15 15 9 8 8 9 11 10 8 7 6 5 5 5 3 4 5 5 5 5 6 6 8 7 6 6 6 7 8 7 7 4 4 5 5 6 6 7
17 16 18 8 9 12 10 8 8 8 8 8 8 7 7 6 5 5 5 5 4 5 5 5 4 5 6 6 6 6 5 7 7 8 8 6 6 5 5 6 7 8 8 8
14 15 9 8 8 7 7 8 7 9 8 7 8 8 6 6 6 6 6 5 5 5 5 4 5 5 5 5 5 5 6 7 8 8 8 7 5 5 6 7 8 8 9 9
14 10 9 9 7 6 6 8 7 8 7 8 8 6 6 6 6 6 6 6 5 6 6 7 6 5 4 4 5 6 7 7 8 8 7 5 5 6 7 7 8 9 9 10
13 11 9 9 7 7 7 7 8 7 8 7 7 7 7 6 6 6 7 6 6 7 7 7 6 5 5 5 6 6 7 7 7 8 7 6 5 6 6 7 7 8 9 9
15 10 10 9 7 7 7 8 8 8 8 6 6 6 6 6 6 7 6 6 6 7 7 7 6 6 5 5 6 7 8 8 8 8 6 6 6 7 5 6 6 7 7 8
10 7 8 8 7 6 7 8 7 7 6 7 6 7 6 6 6 5 6 6 6 7 7 6 6 6 4 4 6 7 8 8 8 6 6 7 7 8 9 7 7 7 7 7
7 7 9 9 9 7 8 7 6 7 7 8 7 6 6 6 7 7 7 6 6 6 6 6 6 5 3 3 6 7 7 7 6 6 7 7 8 8 8 9 10 9 7 7
7 7 7 7 7 8 9 8 8 8 8 8 7 7 6 6 7 7 7 6 6 7 6 6 5 5 4 4 6 7 6 6 5 6 7 7 8 8 8 9 10 9 9 8
7 8 8 9 9 10 10 10 9 9 9 8 7 7 6 6 7 7 7 6 8 8 7 6 5 4 4 5 6 5 4 5 6 7 7 7 8 8 9 9 9 9 10 11
10 10 10 10 10 10 10 9 9 9 8 8 7 7 6 6 8 7 7 7 7 7 6 6 6 5 2 2 3 4 5 5 6 7 7 7 8 8 9 9 10 10 11 10
8 8 9 9 9 10 10 9 9 8 8 8 6 7 6 7 8 8 7 7 8 7 7 7 6 5 3 3 4 5 5 6 7 7 7 8 8 8 9 10 10 11 11 9
7 8 8 8 9 9 10 9 8 8 7 6 7 7 6 7 8 7 7 8 9 8 8 6 5 6 6 4 5 5 5 6 7 7 8 8 9 9 9 10 11 11 11 11
7 8 8 8 9 9 10 9 8 8 7 7 7 7 7 6 7 8 8 9 9 8 6 7 6 6 6 4 4 5 6 7 7 8 8 8 9 10 10 11 11 12 11 12
8 7 8 8 9 9 9 8 8 7 7 7 7 7 7 6 6 8 9 9 8 7 7 6 6 7 6 5 4 5 6 7 8 8 8 9 10 10 11 12 12 11 11 12
7 7 8 9 9 9 9 8 7 7 7 7 7 7 6 6 7 8 8 9 8 7 8 7 7 6 6 6 5 6 7 7 8 8 9 9 10 11 12 12 12 11 11 12
7 7 8 9 8 8 8 8 8 8 7 7 7 7 7 6 6 8 10 8 8 7 8 7 6 6 6 7 6 7 7 7 8 8 9 9 10 11 12 12 12 11 11 12
7 7 8 8 8 8 9 8 8 7 7 7 6 6 6 6 6 7 8 7 7 8 8 7 7 6 7 7 7 7 7 8 8 8 9 9 10 11 12 12 11 11 11 11
7 7 7 7 8 8 7 7 7 7 7 7 6 6 5 5 6 7 8 8 8 8 8 8 7 6 8 8 8 7 7 7 8 8 9 10 10 11 11 11 10 11 11 11
8 8 8 8 8 8 8 8 8 8 8 8 7 6 6 5 5 6 8 8 9 9 9 9 8 8 8 8 8 7 7 8 8 8 9 10 10 11 11 10 9 10 10 11
8 6 8 8 8 8 8 8 9 9 8 7 7 6 6 6 5 6 7 9 9 10 10 9 9 8 8 7 8 8 7 7 8 8 9 10 10 10 11 10 9 9 10 11